User: anonymous
Location: Muenchen
(48.1800°N, 11.5800°E)
Time: 07:56:30
(UTC+02:00)
Language:

Iridium 73 - Orbit

View from above orbital plane
View from above orbital plane
View from above satellite
View from above satellite

Ground track
Ground track

The orbit data is extracted from the following two-line orbital elements,

1 25344U 98032C   14262.08465764  .00000515  00000-0  13221-3 0  8256
2 25344 086.4381 266.2664 0002741 120.1201 302.6341 14.48360612862463
Epoch (UTC): 19 September 2014 02:01:54
Eccentricity: 0.0002741
inclination: 86.4381°
perigee height: 729 km
apogee height: 733 km
right ascension of ascending node: 266.2664°
argument of perigee: 120.1201°
revolutions per day: 14.48360612
mean anomaly at epoch: 302.6341°
orbit number at epoch: 86246

The dashed part of the orbit path shows where the satellite is in the earth's shadow,  

DLR